Tracking 29090 objects as of 16-Jul-2024
HD Live streaming from Space Station
objects crossing your sky now

ARIANE 5 DEB (SYLDA)

Track ARIANE 5 DEB (SYLDA) now!


NORAD ID: 27833
Int'l Code: 2003-028D
Perigee: 627.0 km
Apogee: 35,641.6 km
Inclination: 7.1 °
Period: 636.3 minutes
Semi major axis: 24505 km
RCS: 16.2807 m2 (large)
Launch date: June 11, 2003
Source: France (FR)
Launch site: FRENCH GUIANA (FRGUI)

Note: This is SATELLITE DEBRIS
Your satellite tracking list
Your tracking list is empty




NASA's NSSDC Master Catalog

Two Line Element Set (TLE):
1 27833U 03028D   24197.34974582  .00000259  00000-0  50172-2 0  9994
2 27833   7.0654  19.5655 7144298 152.4271 278.0216  2.26314618174196
Source of the keplerian elements: AFSPC